QPF
0.00 0.00 0.00 0.00 0.00 0.00 0.00 0.00 0.00 0.00 0.00 0.00 0.00 0.00 0.00 0.00 0.00 0.00 0.00 0.00 0.00 0.00 0.00 0.00 0.00 0.00 0.00 0.00 0.00 0.00 0.00 0.00 0.00 0.00 0.00 0.00 0.00 0.00 0.00 0.00 0.00 0.00 0.00 0.00 0.00 0.00 0.00
0.00 0.00 0.00 0.00 0.00 0.00 0.00 0.00 0.00 0.00 0.00 0.00 0.00 0.00 0.00 0.00 0.00 0.00 0.00 0.00 0.00 0.00 0.00 0.00 0.00 0.00 0.00 0.00 0.00 0.00 0.00 0.00 0.00 0.00 0.00 0.00 0.00 0.00 0.00 0.00 0.00 0.00 0.00 0.00 0.00 0.00 0.00
0.00 0.00 0.00 0.00 0.00 0.00 0.00 0.00 0.00 0.00 0.00 0.00 0.00 0.00 0.00 0.00 0.00 0.00 0.00 0.00 0.00 0.00 0.00 0.00 0.00 0.00 0.00 0.00 0.00 0.00 0.00 0.00 0.00 0.00 0.00 0.00 0.00 0.00 0.00 0.00 0.00 0.00 0.00 0.00 0.00 0.00 0.00
0.00 0.00 0.00 0.00 0.00 0.00 0.00 0.00 0.00 0.00 0.00 0.00 0.00 0.00 0.00 0.00 0.00 0.00 0.00 0.00 0.00 0.00 0.00 0.00 0.00 0.00 0.00 0.00 0.00 0.00 0.00 0.00 0.00 0.00 0.00 0.00 0.00 0.00 0.00 0.00 0.00 0.00 0.00 0.00 0.00 0.00 0.00
0.00 0.00 0.00 0.00 0.00 0.00 0.00 0.00 0.00 0.00 0.00 0.00 0.00 0.00 0.00 0.00 0.00 0.00 0.00 0.00 0.00 0.00 0.00 0.00 0.00 0.00 0.00 0.00 0.00 0.00 0.00 0.00 0.00 0.00 0.00 0.00 0.00 0.00 0.00 0.00 0.00 0.00 0.00 0.00 0.00 0.00 0.00
0.02 0.00 0.00 0.00 0.00 0.00 0.00 0.00 0.00 0.00 0.00 0.00 0.00 0.00 0.00 0.00 0.00 0.00 0.00 0.00 0.00 0.00 0.00 0.00 0.00 0.00 0.00 0.00 0.00 0.00 0.00 0.00 0.00 0.00 0.00 0.00 0.00 0.00 0.00 0.00 0.00 0.00 0.00 0.00 0.00 0.00 0.00
0.02 0.01 0.00 0.00 0.00 0.00 0.00 0.00 0.00 0.00 0.00 0.00 0.00 0.00 0.00 0.00 0.00 0.00 0.00 0.00 0.00 0.00 0.00 0.00 0.00 0.00 0.00 0.00 0.00 0.00 0.00 0.00 0.00 0.00 0.00 0.00 0.00 0.00 0.00 0.00 0.00 0.00 0.00 0.00 0.00 0.00 0.00
0.01 0.00 0.00 0.00 0.00 0.00 0.00 0.00 0.00 0.00 0.00 0.00 0.00 0.00 0.00 0.00 0.00 0.00 0.00 0.00 0.00 0.00 0.00 0.00 0.00 0.00 0.00 0.00 0.00 0.00 0.00 0.00 0.00 0.00 0.00 0.00 0.00 0.00 0.00 0.00 0.00 0.00 0.00 0.00 0.00 0.00 0.00
0.09 0.05 0.01 0.00 0.00 0.00 0.00 0.00 0.00 0.00 0.00 0.00 0.00 0.00 0.00 0.00 0.00 0.00 0.00 0.00 0.00 0.00 0.00 0.00 0.00 0.00 0.00 0.00 0.00 0.00 0.00 0.00 0.00 0.00 0.00 0.00 0.00 0.00 0.00 0.00 0.00 0.00 0.00 0.00 0.00 0.00 0.00
0.08 0.07 0.04 0.00 0.00 0.00 0.00 0.00 0.00 0.00 0.00 0.00 0.00 0.00 0.00 0.00 0.00 0.00 0.00 0.00 0.00 0.00 0.00 0.00 0.00 0.00 0.00 0.00 0.00 0.00 0.00 0.00 0.00 0.00 0.00 0.00 0.00 0.00 0.00 0.00 0.00 0.00 0.00 0.00 0.00 0.00 0.00
0.03 0.02 0.02 0.01 0.00 0.00 0.00 0.00 0.00 0.00 0.00 0.00 0.00 0.00 0.00 0.00 0.00 0.00 0.00 0.00 0.00 0.00 0.00 0.00 0.00 0.00 0.00 0.00 0.00 0.00 0.00 0.00 0.00 0.00 0.00 0.00 0.00 0.00 0.00 0.00 0.00 0.00 0.00 0.00 0.00 0.00 0.00
0.02 0.01 0.01 0.01 0.00 0.00 0.00 0.00 0.00 0.00 0.00 0.00 0.00 0.00 0.00 0.00 0.00 0.00 0.00 0.00 0.00 0.00 0.00 0.00 0.00 0.00 0.00 0.00 0.00 0.00 0.00 0.00 0.00 0.00 0.00 0.00 0.00 0.00 0.00 0.00 0.00 0.00 0.00 0.00 0.00 0.00 0.00
0.05 0.04 0.03 0.01 0.00 0.00 0.00 0.00 0.00 0.00 0.00 0.00 0.00 0.00 0.00 0.00 0.00 0.00 0.00 0.00 0.00 0.00 0.00 0.00 0.00 0.00 0.00 0.00 0.00 0.00 0.00 0.00 0.00 0.00 0.00 0.00 0.00 0.00 0.00 0.00 0.00 0.00 0.00 0.00 0.00 0.00 0.00
0.09 0.09 0.05 0.02 0.01 0.00 0.00 0.00 0.00 0.00 0.00 0.00 0.00 0.00 0.00 0.00 0.00 0.00 0.00 0.00 0.00 0.00 0.00 0.00 0.00 0.00 0.00 0.00 0.00 0.00 0.00 0.00 0.00 0.00 0.00 0.00 0.00 0.00 0.00 0.00 0.00 0.00 0.00 0.00 0.00 0.00 0.00
0.04 0.16 0.16 0.05 0.02 0.01 0.00 0.00 0.00 0.00 0.00 0.00 0.00 0.00 0.00 0.00 0.01 0.00 0.00 0.00 0.00 0.00 0.00 0.00 0.00 0.00 0.00 0.00 0.00 0.00 0.00 0.00 0.00 0.00 0.00 0.00 0.00 0.00 0.00 0.00 0.00 0.00 0.00 0.00 0.00 0.00 0.00
0.05 0.17 0.20 0.16 0.05 0.01 0.00 0.00 0.00 0.00 0.00 0.00 0.00 0.00 0.00 0.00 0.00 0.00 0.00 0.00 0.00 0.00 0.00 0.00 0.00 0.00 0.00 0.00 0.00 0.00 0.00 0.00 0.00 0.00 0.00 0.00 0.00 0.00 0.00 0.00 0.00 0.00 0.00 0.00 0.00 0.00 0.00
0.07 0.19 0.25 0.17 0.12 0.02 0.00 0.00 0.00 0.00 0.00 0.00 0.00 0.00 0.00 0.00 0.00 0.00 0.00 0.00 0.00 0.00 0.00 0.00 0.00 0.00 0.00 0.00 0.00 0.00 0.00 0.00 0.00 0.00 0.00 0.00 0.00 0.00 0.00 0.00 0.00 0.00 0.00 0.00 0.00 0.00 0.00
0.10 0.23 0.30 0.18 0.08 0.01 0.00 0.00 0.00 0.00 0.00 0.00 0.00 0.00 0.02 0.00 0.00 0.00 0.00 0.00 0.00 0.00 0.00 0.00 0.00 0.00 0.00 0.00 0.00 0.00 0.00 0.00 0.00 0.00 0.00 0.00 0.00 0.00 0.00 0.00 0.00 0.00 0.00 0.00 0.00 0.00 0.00
0.19 0.29 0.28 0.21 0.08 0.01 0.00 0.00 0.00 0.00 0.00 0.00 0.00 0.02 0.05 0.00 0.00 0.00 0.00 0.00 0.00 0.00 0.00 0.00 0.00 0.00 0.00 0.00 0.00 0.00 0.00 0.00 0.00 0.00 0.00 0.00 0.00 0.00 0.00 0.00 0.00 0.00 0.00 0.00 0.00 0.00 0.00
0.30 0.33 0.23 0.20 0.02 0.00 0.00 0.00 0.00 0.00 0.00 0.00 0.00 0.01 0.02 0.00 0.00 0.00 0.00 0.00 0.00 0.00 0.00 0.00 0.00 0.00 0.00 0.00 0.00 0.00 0.00 0.00 0.00 0.00 0.00 0.00 0.00 0.00 0.00 0.00 0.00 0.00 0.00 0.00 0.00 0.00 0.00
0.31 0.32 0.24 0.13 0.01 0.00 0.00 0.00 0.00 0.00 0.00 0.00 0.00 0.00 0.00 0.00 0.00 0.00 0.00 0.00 0.00 0.00 0.00 0.00 0.00 0.00 0.00 0.00 0.00 0.00 0.00 0.00 0.00 0.00 0.00 0.00 0.00 0.00 0.00 0.00 0.00 0.00 0.00 0.00 0.00 0.00 0.00
0.29 0.24 0.18 0.04 0.00 0.00 0.00 0.00 0.01 0.00 0.00 0.01 0.00 0.00 0.00 0.00 0.00 0.00 0.00 0.00 0.00 0.00 0.00 0.00 0.00 0.00 0.00 0.00 0.00 0.00 0.00 0.00 0.00 0.00 0.00 0.00 0.00 0.00 0.00 0.00 0.00 0.00 0.00 0.00 0.00 0.00 0.00
0.26 0.16 0.06 0.00 0.00 0.00 0.01 0.01 0.01 0.00 0.00 0.00 0.00 0.00 0.00 0.00 0.00 0.00 0.00 0.00 0.00 0.00 0.00 0.00 0.00 0.00 0.00 0.00 0.00 0.00 0.00 0.00 0.00 0.00 0.00 0.00 0.00 0.00 0.00 0.00 0.00 0.00 0.00 0.00 0.00 0.00 0.00
0.17 0.05 0.00 0.00 0.00 0.00 0.01 0.01 0.00 0.00 0.00 0.00 0.00 0.00 0.00 0.00 0.00 0.00 0.00 0.00 0.00 0.00 0.00 0.00 0.00 0.00 0.00 0.00 0.00 0.00 0.00 0.00 0.00 0.00 0.00 0.00 0.00 0.00 0.00 0.00 0.00 0.00 0.00 0.00 0.00 0.00 0.00
0.04 0.00 0.00 0.00 0.00 0.00 0.00 0.00 0.00 0.00 0.00 0.00 0.00 0.00 0.00 0.00 0.00 0.00 0.00 0.00 0.00 0.00 0.00 0.00 0.00 0.00 0.00 0.00 0.00 0.00 0.00 0.00 0.00 0.00 0.00 0.00 0.00 0.00 0.00 0.00 0.00 0.00 0.00 0.00 0.00 0.00 0.00
0.00 0.00 0.00 0.01 0.01 0.01 0.00 0.00 0.00 0.00 0.00 0.01 0.00 0.00 0.00 0.00 0.00 0.00 0.00 0.00 0.00 0.00 0.00 0.00 0.00 0.00 0.00 0.00 0.00 0.00 0.00 0.00 0.00 0.00 0.00 0.00 0.00 0.00 0.00 0.00 0.00 0.00 0.00 0.00 0.00 0.00 0.00
0.00 0.00 0.01 0.01 0.01 0.00 0.00 0.00 0.00 0.00 0.00 0.00 0.00 0.00 0.00 0.00 0.00 0.00 0.00 0.00 0.00 0.00 0.00 0.00 0.00 0.00 0.00 0.00 0.00 0.00 0.00 0.00 0.00 0.00 0.00 0.00 0.00 0.00 0.00 0.00 0.00 0.00 0.00 0.00 0.00 0.00 0.00
0.00 0.00 0.00 0.01 0.01 0.01 0.00 0.00 0.00 0.00 0.00 0.00 0.00 0.01 0.00 0.00 0.00 0.00 0.00 0.00 0.00 0.00 0.00 0.00 0.00 0.00 0.00 0.00 0.00 0.00 0.00 0.00 0.00 0.00 0.00 0.00 0.00 0.00 0.00 0.00 0.00 0.00 0.00 0.00 0.00 0.00 0.00
0.00 0.00 0.01 0.01 0.01 0.00 0.00 0.00 0.00 0.00 0.00 0.00 0.02 0.08 0.01 0.00 0.00 0.00 0.00 0.00 0.00 0.00 0.00 0.00 0.00 0.00 0.00 0.00 0.00 0.00 0.00 0.00 0.00 0.00 0.00 0.00 0.00 0.00 0.00 0.00 0.00 0.00 0.00 0.00 0.00 0.00 0.00
MSLP
1016.44 1016.76 1016.91 1017.16 1017.19 1017.65 1017.88 1018.13 1018.01 1018.47 1018.23 1018.29 1018.11 1017.93 1017.70 1017.52 1017.45 1017.20 1017.34 1017.02 1017.03 1016.70 1016.80 1016.98 1016.99 1016.86 1016.65 1015.17 1012.52 1010.51 1010.55 1010.71 1011.29 1011.49 1011.39 1011.51 1011.84 1011.67 1011.51 1011.29 1011.32 1011.42 1011.21 1011.30 1011.27 1012.24 1012.00
1015.73 1016.16 1016.46 1016.70 1016.82 1017.02 1017.42 1017.52 1017.53 1017.65 1018.02 1017.93 1017.83 1017.65 1017.38 1017.17 1017.21 1016.99 1017.11 1016.87 1016.67 1016.47 1016.70 1016.86 1016.90 1016.82 1016.28 1013.89 1010.22 1010.30 1010.49 1011.01 1010.91 1011.20 1011.27 1011.39 1011.07 1011.03 1011.09 1010.97 1010.86 1010.79 1011.01 1011.17 1011.64 1011.79 1012.35
1015.11 1015.35 1015.74 1016.04 1016.33 1016.79 1016.79 1016.94 1017.37 1017.40 1017.56 1017.51 1017.39 1017.23 1017.16 1017.07 1016.84 1016.72 1016.91 1016.66 1016.47 1016.41 1016.62 1016.74 1016.87 1016.78 1015.67 1011.78 1010.01 1010.34 1010.43 1010.30 1010.23 1010.38 1010.66 1010.86 1010.83 1010.82 1010.60 1010.60 1010.77 1010.91 1011.03 1011.26 1011.64 1011.98 1012.55
1014.18 1014.58 1015.02 1015.46 1015.73 1016.05 1016.36 1016.29 1016.65 1016.89 1017.14 1017.13 1016.96 1016.92 1016.77 1016.82 1016.42 1016.52 1016.66 1016.48 1016.31 1016.41 1016.57 1016.66 1016.79 1016.64 1014.01 1010.09 1010.00 1010.05 1009.87 1009.55 1009.83 1010.14 1010.05 1010.28 1010.59 1010.74 1010.74 1010.67 1010.82 1011.01 1011.34 1011.62 1012.11 1012.29 1013.08
1013.31 1013.76 1014.26 1014.62 1015.10 1015.43 1015.83 1016.07 1016.22 1016.23 1016.55 1016.67 1016.51 1016.46 1016.64 1016.47 1016.17 1016.42 1016.44 1016.38 1016.36 1016.42 1016.45 1016.59 1016.78 1016.08 1012.53 1009.71 1009.71 1009.06 1008.98 1009.06 1009.47 1009.85 1009.97 1010.17 1010.35 1010.88 1010.99 1011.03 1011.22 1011.48 1011.84 1012.05 1012.60 1012.87 1013.20
1012.90 1013.00 1013.38 1013.88 1014.35 1014.73 1015.01 1015.48 1015.76 1015.83 1016.09 1016.26 1016.08 1016.07 1016.34 1016.04 1016.16 1016.27 1016.22 1016.35 1016.33 1016.44 1016.60 1016.57 1016.20 1015.54 1011.77 1010.22 1009.48 1008.94 1008.62 1008.64 1009.14 1009.55 1010.06 1010.27 1010.65 1010.97 1011.30 1011.16 1011.48 1011.89 1012.23 1012.54 1012.89 1013.65 1014.07
1012.42 1012.31 1012.62 1012.99 1013.59 1013.98 1014.42 1014.70 1015.23 1015.47 1015.71 1015.88 1015.67 1015.74 1015.96 1015.76 1016.15 1016.10 1016.10 1016.60 1016.59 1016.50 1015.94 1014.49 1013.75 1012.88 1011.34 1010.19 1009.59 1008.90 1008.69 1008.73 1009.06 1009.68 1010.25 1010.48 1010.81 1011.25 1011.34 1011.40 1011.58 1011.93 1012.40 1012.83 1013.59 1014.33 1015.10
1011.87 1011.69 1011.95 1012.15 1012.81 1013.39 1013.76 1014.15 1014.65 1014.96 1015.20 1015.52 1015.40 1015.43 1015.53 1015.70 1015.97 1015.91 1016.15 1015.79 1013.79 1013.23 1013.62 1012.97 1012.74 1012.17 1011.07 1010.48 1009.86 1009.03 1008.79 1009.22 1009.66 1010.26 1010.62 1010.97 1011.41 1011.58 1011.62 1011.88 1012.11 1012.47 1012.78 1013.49 1014.29 1014.63 1015.16
1011.13 1011.35 1010.98 1011.58 1012.04 1012.62 1013.19 1013.59 1014.03 1014.46 1014.76 1015.15 1015.06 1015.21 1015.24 1015.68 1015.70 1016.05 1015.65 1014.17 1012.84 1012.77 1012.92 1012.09 1011.70 1011.12 1010.24 1010.24 1009.77 1009.34 1009.20 1009.49 1010.16 1010.79 1011.21 1011.33 1011.87 1011.83 1012.09 1012.48 1012.55 1012.95 1013.25 1013.76 1014.27 1015.00 1015.51
1010.61 1010.93 1011.12 1010.87 1011.40 1011.92 1012.59 1012.97 1013.47 1013.88 1014.26 1014.72 1014.64 1014.97 1015.14 1015.56 1015.69 1015.22 1014.56 1012.78 1012.76 1012.87 1012.67 1011.66 1010.84 1009.67 1009.73 1009.68 1009.80 1009.47 1009.43 1009.76 1010.68 1011.34 1011.83 1012.14 1012.21 1012.18 1012.59 1012.88 1012.85 1013.41 1013.73 1013.91 1014.36 1014.74 1015.49
1009.99 1010.15 1010.49 1010.61 1010.75 1011.26 1011.83 1012.42 1012.93 1013.34 1013.69 1014.34 1014.40 1014.58 1014.86 1014.82 1014.51 1014.48 1012.88 1012.50 1012.63 1012.73 1012.47 1011.03 1009.97 1008.99 1009.33 1009.82 1009.93 1009.92 1009.87 1009.88 1010.87 1011.59 1012.21 1012.76 1012.68 1012.65 1013.03 1013.21 1012.98 1014.07 1014.11 1014.38 1014.86 1015.24 1015.67
1009.07 1009.52 1009.87 1010.32 1010.03 1010.46 1011.14 1011.93 1012.44 1012.85 1013.21 1013.83 1014.07 1014.52 1014.74 1015.19 1014.49 1013.07 1012.37 1012.53 1012.78 1013.10 1011.91 1010.62 1009.59 1009.38 1009.79 1010.07 1010.34 1010.26 1010.25 1010.43 1011.39 1011.93 1012.20 1012.69 1012.72 1012.88 1013.08 1013.27 1013.33 1014.07 1014.56 1015.19 1015.69 1015.89 1016.26
1008.12 1008.49 1008.78 1008.97 1009.17 1009.72 1010.39 1011.18 1011.84 1012.43 1012.85 1013.55 1013.90 1014.11 1014.42 1013.65 1013.24 1012.50 1012.37 1012.92 1013.34 1012.60 1011.55 1010.85 1010.18 1009.92 1010.29 1010.78 1011.08 1011.09 1011.38 1011.74 1011.99 1012.57 1013.11 1013.26 1013.34 1013.17 1013.10 1013.49 1013.96 1014.23 1014.91 1015.83 1016.32 1016.53 1016.60
1007.28 1007.57 1008.01 1008.34 1008.30 1008.91 1009.61 1010.46 1011.24 1011.84 1012.51 1013.34 1013.69 1013.95 1013.78 1012.92 1012.49 1012.61 1012.59 1013.38 1013.02 1012.08 1011.46 1010.73 1010.42 1010.57 1010.93 1011.21 1011.76 1011.92 1012.16 1012.60 1012.62 1012.64 1013.66 1013.79 1013.93 1013.64 1013.59 1013.74 1014.13 1014.85 1015.29 1016.05 1016.77 1017.45 1017.24
1006.27 1006.55 1007.40 1007.26 1007.27 1007.96 1008.81 1009.69 1010.57 1011.19 1012.14 1013.01 1013.69 1014.25 1013.72 1011.73 1012.17 1013.00 1013.07 1013.27 1012.20 1011.72 1010.94 1010.71 1010.75 1011.02 1011.39 1011.53 1011.80 1012.39 1012.88 1013.09 1013.11 1012.97 1013.35 1013.96 1014.18 1014.00 1013.95 1013.93 1014.45 1015.27 1015.93 1016.57 1017.39 1018.67 1018.18
1005.52 1005.84 1006.33 1006.82 1006.33 1007.02 1007.97 1009.06 1009.85 1010.84 1011.57 1012.35 1013.27 1013.77 1012.27 1011.17 1011.74 1012.51 1012.89 1012.62 1011.76 1011.06 1010.49 1010.44 1010.82 1011.13 1011.67 1011.91 1012.31 1012.72 1013.22 1013.45 1013.41 1013.33 1013.22 1014.05 1014.53 1014.50 1014.35 1014.34 1014.81 1014.91 1016.07 1016.92 1017.53 1018.42 1018.33
1004.37 1004.66 1005.25 1005.69 1006.40 1006.39 1007.39 1008.40 1009.57 1010.20 1011.22 1011.64 1012.73 1013.19 1011.24 1011.06 1011.82 1012.39 1012.58 1012.17 1011.15 1010.39 1010.09 1010.22 1010.58 1011.16 1011.61 1012.11 1012.67 1013.19 1013.65 1013.76 1013.60 1013.69 1013.58 1014.18 1014.61 1015.33 1015.05 1014.94 1015.09 1015.78 1016.27 1017.28 1017.96 1018.61 1018.51
1003.54 1003.93 1004.61 1005.09 1005.53 1005.57 1006.69 1007.84 1009.11 1009.78 1010.84 1011.97 1012.05 1012.36 1011.12 1011.24 1011.99 1012.42 1012.11 1011.27 1010.35 1010.03 1009.82 1009.81 1010.02 1010.80 1011.49 1012.24 1012.97 1013.40 1013.64 1013.73 1013.88 1013.93 1014.29 1014.75 1015.28 1015.76 1015.68 1015.47 1015.52 1015.66 1016.19 1016.93 1017.97 1018.97 1019.22
1002.22 1003.07 1003.22 1004.50 1005.03 1005.04 1006.21 1007.40 1008.57 1009.31 1009.57 1010.16 1011.22 1011.36 1011.12 1011.04 1011.60 1012.15 1011.63 1010.82 1010.08 1009.85 1009.68 1009.68 1010.17 1010.65 1011.54 1012.49 1013.35 1013.74 1013.96 1014.19 1014.12 1014.28 1014.56 1014.94 1015.84 1016.33 1016.42 1016.30 1016.01 1016.12 1016.56 1017.22 1017.93 1018.49 1018.69
1001.24 1001.78 1002.53 1003.22 1003.84 1004.45 1005.79 1006.89 1007.93 1008.53 1008.59 1008.66 1010.23 1011.16 1011.39 1011.35 1011.28 1011.04 1011.24 1010.62 1010.09 1009.66 1009.62 1009.62 1010.41 1010.93 1011.83 1012.91 1013.40 1014.03 1014.32 1014.53 1014.57 1014.81 1014.98 1015.13 1016.12 1016.25 1016.43 1016.35 1016.38 1016.62 1016.83 1017.34 1017.53 1018.29 1018.20
999.51 1000.68 1001.02 1001.98 1002.74 1003.88 1005.24 1006.41 1007.48 1007.68 1008.21 1008.51 1009.55 1010.05 1010.03 1011.21 1011.49 1010.95 1010.59 1010.35 1010.18 1010.01 1009.76 1009.87 1010.63 1011.05 1011.78 1013.20 1013.87 1014.28 1014.59 1014.91 1015.13 1015.35 1015.64 1015.94 1016.67 1017.12 1017.32 1017.33 1017.12 1016.92 1016.97 1017.27 1017.39 1017.27 1017.29
998.96 999.91 1000.67 1001.51 1002.55 1003.74 1004.57 1006.10 1006.71 1007.30 1008.29 1008.41 1009.04 1009.26 1010.14 1010.68 1010.76 1011.03 1010.83 1010.55 1010.23 1010.53 1010.48 1010.41 1010.77 1011.72 1012.06 1012.79 1013.14 1013.97 1014.34 1015.01 1015.13 1016.00 1016.38 1016.93 1017.63 1018.04 1018.35 1018.27 1018.01 1017.54 1017.12 1017.15 1017.12 1017.00 1016.68
998.66 999.40 1000.14 1001.15 1002.40 1003.33 1004.37 1005.58 1006.13 1006.68 1006.97 1007.62 1008.17 1008.26 1008.48 1011.23 1011.32 1011.25 1011.04 1010.64 1010.34 1010.47 1011.15 1011.09 1011.28 1012.07 1012.82 1013.27 1013.52 1013.97 1014.45 1014.69 1015.17 1016.05 1017.07 1017.80 1018.37 1019.12 1019.37 1019.11 1018.50 1017.84 1016.25 1016.14 1016.12 1015.91 1015.68
997.59 998.53 999.79 1000.99 1002.09 1002.83 1004.15 1005.12 1005.63 1005.92 1005.95 1006.05 1006.79 1007.60 1008.93 1011.30 1011.41 1010.93 1010.78 1010.53 1010.56 1010.77 1011.31 1012.09 1012.18 1012.56 1013.85 1013.82 1014.13 1014.56 1015.23 1015.83 1016.32 1017.15 1017.41 1018.34 1019.17 1019.88 1020.37 1019.95 1018.59 1015.89 1015.51 1015.52 1015.60 1015.25 1015.31
997.51 998.62 999.94 1000.87 1001.50 1002.74 1004.10 1004.61 1004.96 1005.41 1005.68 1005.81 1006.29 1006.78 1008.46 1010.70 1010.91 1010.83 1010.87 1011.02 1011.26 1011.46 1012.17 1012.87 1013.35 1013.63 1013.89 1014.32 1015.41 1016.31 1016.93 1017.15 1017.73 1018.23 1018.36 1018.50 1019.41 1020.53 1020.93 1020.15 1018.08 1015.77 1015.55 1015.59 1015.51 1014.69 1014.54
998.06 999.09 999.91 1000.65 1001.77 1002.90 1003.44 1003.81 1004.31 1004.96 1005.23 1005.64 1006.12 1006.38 1007.68 1009.52 1010.61 1009.98 1010.79 1011.03 1011.54 1012.15 1013.10 1013.83 1014.18 1014.21 1014.50 1015.78 1016.54 1017.60 1017.95 1017.88 1018.38 1018.79 1019.09 1019.32 1019.47 1020.02 1021.20 1020.30 1018.34 1016.06 1015.39 1015.21 1015.31 1014.99 1014.62
998.72 999.47 1000.02 1000.95 1001.96 1002.41 1002.75 1003.32 1003.90 1004.41 1004.92 1004.92 1006.10 1006.43 1007.34 1008.96 1009.88 1009.88 1010.10 1010.68 1011.29 1011.97 1013.12 1014.03 1014.48 1014.81 1015.05 1016.55 1017.74 1018.52 1018.53 1018.36 1018.63 1018.96 1019.53 1020.17 1020.55 1020.75 1021.04 1019.84 1017.84 1015.89 1015.59 1015.49 1015.62 1015.35 1014.88
999.12 999.71 1000.56 1001.22 1001.52 1001.93 1002.25 1002.71 1003.28 1004.09 1004.55 1004.54 1006.67 1006.81 1007.02 1009.01 1010.04 1009.94 1009.83 1010.28 1010.89 1011.21 1012.45 1013.86 1014.56 1015.15 1015.97 1016.89 1018.18 1018.88 1018.98 1018.75 1018.81 1018.73 1018.96 1019.25 1020.00 1020.64 1020.85 1019.48 1017.41 1015.80 1015.90 1015.86 1015.09 1014.91 1015.04
999.58 1000.34 1000.74 1000.99 1001.18 1001.44 1001.69 1002.18 1002.99 1003.83 1004.25 1004.46 1006.59 1007.14 1007.42 1008.39 1010.20 1010.27 1010.25 1010.17 1010.19 1010.28 1011.09 1013.01 1013.15 1013.92 1014.66 1016.47 1018.32 1018.99 1019.40 1019.49 1019.26 1019.07 1018.76 1018.76 1018.23 1018.45 1018.72 1017.08 1015.88 1015.66 1015.26 1014.98 1015.17 1015.26 1015.31
Thickness
5629 5628 5629 5629 5632 5630 5628 5627 5629 5624 5627 5625 5625 5626 5624 5622 5618 5617 5614 5617 5614 5618 5618 5617 5617 5619 5621 5631 5645 5673 5676 5676 5673 5671 5669 5667 5662 5663 5660 5665 5669 5667 5673 5676 5679 5669 5678
5623 5622 5622 5623 5626 5627 5625 5626 5628 5627 5622 5622 5622 5621 5621 5619 5615 5614 5613 5614 5614 5617 5616 5614 5614 5616 5622 5628 5671 5673 5675 5671 5674 5670 5668 5670 5671 5673 5669 5671 5673 5675 5676 5674 5673 5676 5677
5617 5619 5619 5620 5621 5620 5623 5624 5621 5622 5620 5620 5620 5619 5616 5614 5613 5613 5610 5611 5612 5614 5613 5611 5611 5614 5621 5644 5672 5671 5673 5674 5678 5677 5671 5674 5678 5676 5677 5673 5679 5677 5674 5678 5679 5681 5677
5614 5615 5614 5615 5616 5617 5618 5623 5622 5621 5617 5617 5618 5615 5614 5610 5612 5611 5608 5608 5610 5610 5609 5609 5608 5611 5628 5668 5670 5672 5675 5679 5681 5680 5681 5682 5680 5677 5676 5680 5674 5670 5670 5663 5672 5676 5670
5609 5610 5611 5611 5612 5613 5613 5615 5618 5620 5617 5615 5616 5614 5609 5608 5610 5609 5606 5606 5606 5606 5607 5606 5606 5613 5633 5669 5665 5678 5682 5679 5680 5679 5681 5683 5682 5672 5674 5665 5664 5663 5652 5657 5661 5670 5670
5600 5605 5607 5608 5608 5611 5613 5612 5614 5616 5615 5612 5614 5612 5605 5607 5607 5605 5604 5602 5603 5603 5603 5603 5608 5612 5644 5652 5665 5675 5684 5685 5679 5677 5673 5674 5669 5666 5663 5667 5650 5654 5653 5654 5657 5660 5659
5589 5597 5602 5604 5605 5607 5609 5612 5610 5612 5611 5609 5611 5609 5604 5606 5603 5602 5603 5599 5603 5601 5604 5619 5626 5629 5643 5657 5666 5671 5680 5680 5678 5671 5659 5666 5664 5658 5664 5665 5665 5661 5657 5656 5654 5652 5647
5577 5585 5592 5598 5599 5600 5604 5607 5607 5608 5608 5604 5607 5606 5604 5603 5601 5602 5601 5603 5617 5624 5616 5626 5627 5631 5643 5651 5649 5664 5679 5666 5664 5653 5660 5659 5650 5660 5662 5662 5659 5656 5653 5648 5647 5651 5651
5565 5572 5583 5587 5591 5595 5597 5601 5603 5604 5604 5601 5603 5603 5602 5600 5600 5598 5601 5612 5624 5625 5615 5628 5630 5634 5644 5649 5647 5653 5668 5664 5657 5650 5649 5651 5655 5660 5658 5654 5656 5649 5649 5647 5650 5647 5646
5551 5559 5567 5578 5582 5588 5589 5595 5597 5600 5601 5598 5602 5599 5599 5597 5598 5601 5607 5623 5622 5623 5603 5619 5628 5641 5647 5650 5642 5661 5668 5664 5652 5645 5645 5648 5654 5655 5651 5649 5654 5645 5652 5651 5649 5650 5644
5537 5547 5556 5566 5573 5577 5581 5586 5590 5594 5595 5594 5597 5597 5597 5598 5605 5604 5621 5622 5623 5620 5579 5624 5632 5656 5649 5641 5646 5652 5663 5663 5647 5646 5648 5641 5645 5647 5645 5647 5657 5644 5648 5648 5642 5639 5639
5523 5532 5542 5550 5563 5570 5573 5576 5581 5586 5589 5591 5592 5590 5593 5591 5599 5612 5621 5619 5617 5592 5585 5620 5635 5635 5635 5639 5642 5650 5653 5660 5653 5644 5647 5643 5652 5651 5651 5650 5653 5645 5644 5636 5630 5630 5624
5507 5518 5530 5541 5553 5561 5564 5569 5573 5576 5582 5584 5585 5587 5589 5598 5604 5612 5617 5610 5591 5584 5620 5617 5624 5633 5631 5629 5633 5637 5635 5634 5638 5629 5627 5637 5639 5648 5653 5647 5647 5645 5637 5619 5617 5615 5617
5489 5501 5515 5527 5542 5549 5556 5560 5565 5569 5572 5574 5577 5581 5587 5598 5605 5608 5611 5596 5592 5606 5609 5626 5626 5628 5623 5629 5626 5629 5631 5630 5636 5637 5624 5624 5622 5639 5645 5644 5640 5631 5634 5618 5605 5605 5614
5472 5486 5498 5517 5534 5541 5547 5553 5557 5561 5561 5565 5566 5570 5579 5602 5602 5601 5600 5577 5594 5603 5621 5622 5625 5621 5621 5630 5631 5627 5623 5627 5632 5638 5631 5622 5622 5638 5639 5641 5640 5625 5620 5620 5600 5579 5596
5453 5472 5487 5503 5524 5535 5542 5544 5550 5552 5556 5557 5560 5564 5586 5600 5601 5598 5591 5586 5606 5618 5628 5628 5618 5623 5616 5625 5625 5625 5625 5628 5631 5634 5639 5628 5616 5628 5634 5637 5633 5634 5624 5615 5606 5595 5599
5437 5461 5480 5496 5508 5527 5535 5539 5540 5548 5550 5553 5555 5559 5586 5594 5595 5591 5584 5591 5611 5624 5631 5628 5623 5621 5623 5624 5623 5620 5620 5626 5631 5631 5635 5628 5622 5616 5624 5624 5624 5621 5617 5606 5606 5596 5601
5422 5446 5471 5492 5506 5522 5528 5533 5537 5544 5545 5546 5553 5556 5579 5586 5580 5575 5587 5601 5621 5626 5632 5633 5635 5631 5627 5625 5620 5619 5620 5625 5624 5629 5626 5621 5610 5603 5615 5620 5622 5623 5620 5616 5605 5598 5580
5424 5443 5473 5487 5499 5516 5521 5528 5535 5542 5552 5556 5556 5564 5573 5582 5571 5570 5591 5608 5621 5625 5630 5634 5633 5635 5629 5620 5615 5614 5615 5618 5622 5624 5620 5619 5605 5597 5606 5615 5619 5620 5616 5606 5597 5592 5591
5423 5448 5471 5490 5505 5512 5518 5527 5536 5543 5554 5561 5559 5556 5565 5570 5577 5591 5594 5605 5615 5626 5631 5634 5629 5630 5623 5616 5613 5607 5610 5614 5617 5617 5611 5617 5604 5609 5609 5614 5613 5611 5610 5605 5609 5595 5594
5443 5460 5480 5495 5504 5514 5520 5528 5535 5545 5550 5558 5557 5562 5577 5565 5576 5588 5601 5606 5611 5617 5630 5632 5629 5630 5623 5609 5608 5604 5608 5609 5612 5608 5609 5612 5606 5602 5598 5599 5604 5610 5610 5604 5606 5605 5605
5454 5470 5485 5497 5503 5513 5524 5528 5537 5543 5544 5556 5559 5566 5562 5570 5581 5587 5590 5600 5610 5613 5620 5628 5625 5622 5625 5615 5619 5607 5611 5607 5610 5605 5603 5599 5596 5594 5593 5590 5591 5599 5604 5603 5600 5600 5603
5462 5477 5488 5498 5506 5517 5526 5532 5538 5544 5554 5559 5561 5572 5580 5552 5570 5578 5586 5599 5610 5615 5613 5618 5623 5618 5617 5616 5614 5609 5607 5607 5610 5606 5595 5593 5588 5586 5586 5574 5582 5587 5609 5610 5606 5606 5611
5476 5486 5493 5502 5512 5523 5528 5533 5540 5549 5559 5571 5573 5575 5569 5550 5567 5582 5592 5605 5608 5615 5613 5609 5615 5617 5606 5607 5607 5606 5601 5596 5596 5589 5592 5583 5574 5557 5574 5554 5577 5616 5612 5609 5605 5606 5604
5481 5492 5498 5508 5519 5525 5528 5536 5545 5551 5559 5569 5573 5578 5567 5538 5568 5582 5589 5593 5596 5600 5602 5603 5603 5604 5604 5604 5592 5589 5580 5584 5580 5576 5578 5582 5568 5548 5571 5570 5586 5613 5601 5600 5596 5609 5605
5488 5495 5504 5516 5520 5526 5534 5543 5549 5553 5561 5567 5571 5577 5576 5562 5569 5587 5587 5592 5592 5592 5592 5591 5594 5596 5595 5574 5578 5575 5577 5586 5582 5580 5570 5568 5563 5574 5541 5566 5571 5597 5598 5597 5594 5588 5597
5491 5501 5512 5518 5523 5532 5541 5546 5551 5557 5562 5571 5569 5574 5579 5571 5575 5585 5589 5592 5594 5592 5586 5587 5590 5594 5591 5568 5566 5574 5579 5571 5577 5570 5554 5548 5541 5558 5513 5558 5569 5586 5586 5585 5575 5581 5581
5499 5509 5514 5521 5530 5538 5545 5550 5556 5558 5563 5571 5562 5570 5580 5566 5571 5582 5592 5592 5593 5596 5592 5587 5587 5584 5571 5574 5571 5563 5566 5568 5571 5572 5560 5567 5553 5544 5511 5537 5560 5576 5576 5571 5579 5573 5571
5504 5509 5517 5526 5536 5543 5549 5555 5558 5559 5564 5570 5562 5568 5574 5576 5570 5576 5583 5590 5596 5602 5598 5582 5598 5592 5591 5571 5549 5541 5549 5542 5550 5572 5557 5564 5569 5566 5561 5570 5573 5567 5570 5568 5563 5562 5559